Location: Windsor
(43.2292°N, 89.3015°W)
Time: 08:55:46
(UTC+00:00)

Tiros 1 - Pass Details

Date: 06 June 2022
Orbit: 629 x 663 km, 48.4° (Epoch: 04 July)

Event Time Altitude Azimuth Distance (km) Brightness Sun altitude
Rises 03:33:05 0° 253° (WSW) 2,910 10.7 -16.4°
Reaches altitude 10° 03:35:25 10° 256° (WSW) 2,003 9.9 -16.6°
Maximum altitude 03:40:00 68° 339° (NNW) 679 7.4 -17.1°
Drops below altitude 10° 03:44:36 10° 63° (ENE) 2,009 9.6 -17.5°
Sets 03:46:57 0° 66° (ENE) 2,921 10.4 -17.8°
